TimePST,TemperatureF,Dew PointF,Humidity,Sea Level PressureIn,VisibilityMPH,Wind Direction,Wind SpeedMPH,Gust SpeedMPH,PrecipitationIn,Events,Conditions,WindDirDegrees,DateUTC
12:15 AM,46.4,46.4,100,30.18,10.0,WNW,3.5,-,N/A,,Clear,300,2012-12-24 08:15:00
12:35 AM,46.4,46.4,100,30.17,10.0,Calm,Calm,-,N/A,,Partly Cloudy,0,2012-12-24 08:35:00
12:55 AM,46.4,46.4,100,30.16,10.0,Calm,Calm,-,N/A,,Mostly Cloudy,0,2012-12-24 08:55:00
1:15 AM,46.4,46.4,100,30.17,10.0,Calm,Calm,-,N/A,,Overcast,0,2012-12-24 09:15:00
1:35 AM,46.4,46.4,100,30.16,10.0,WNW,3.5,-,N/A,,Scattered Clouds,300,2012-12-24 09:35:00
1:55 AM,46.4,46.4,100,30.16,10.0,Calm,Calm,-,N/A,,Clear,0,2012-12-24 09:55:00
2:15 AM,46.4,46.4,100,30.16,10.0,Calm,Calm,-,N/A,,Partly Cloudy,0,2012-12-24 10:15:00
2:35 AM,46.4,46.4,100,30.16,10.0,North,-9999.0,-,N/A,,Mostly Cloudy,0,2012-12-24 10:35:00
2:55 AM,44.6,44.6,100,30.16,10.0,Calm,Calm,-,N/A,,Mostly Cloudy,0,2012-12-24 10:55:00
3:15 AM,46.4,46.4,100,30.16,10.0,Calm,Calm,-,N/A,,Overcast,0,2012-12-24 11:15:00
3:35 AM,44.6,44.6,100,30.16,8.0,West,3.5,-,N/A,,Mostly Cloudy,280,2012-12-24 11:35:00
3:55 AM,44.6,44.6,100,30.15,10.0,Calm,Calm,-,N/A,,Mostly Cloudy,0,2012-12-24 11:55:00
4:15 AM,46.4,46.4,100,30.14,10.0,Calm,Calm,-,N/A,,Overcast,0,2012-12-24 12:15:00
4:35 AM,46.4,46.4,100,30.14,10.0,Calm,Calm,-,N/A,,Overcast,0,2012-12-24 12:35:00
4:55 AM,46.4,46.4,100,30.15,10.0,Calm,Calm,-,N/A,,Mostly Cloudy,0,2012-12-24 12:55:00
5:15 AM,46.4,46.4,100,30.15,10.0,Calm,Calm,-,N/A,,Overcast,0,2012-12-24 13:15:00
6:47 AM,48.2,48.2,100,30.12,10.0,Calm,Calm,-,N/A,,Overcast,0,2012-12-24 14:47:00
7:47 AM,48.2,48.2,100,30.13,10.0,Calm,Calm,-,N/A,,Overcast,0,2012-12-24 15:47:00
9:47 AM,51.8,51.8,100,30.16,1.0,Calm,Calm,-,N/A,,Drizzle,0,2012-12-24 17:47:00
10:15 AM,53.6,53.6,100,30.14,2.0,Calm,Calm,-,N/A,,Light Drizzle,0,2012-12-24 18:15:00
10:47 AM,53.6,53.6,100,30.13,1.5,Calm,Calm,-,N/A,,Light Drizzle,0,2012-12-24 18:47:00
11:47 AM,57.2,57.2,100,30.10,4.0,Calm,Calm,-,N/A,,Light Drizzle,0,2012-12-24 19:47:00
2:47 PM,62.6,53.6,72,30.03,10.0,Calm,Calm,-,N/A,,Mostly Cloudy,0,2012-12-24 22:47:00
4:47 PM,57.2,53.6,88,30.02,10.0,Variable,5.8,-,N/A,,Scattered Clouds,0,2012-12-25 00:47:00
7:49 PM,55.4,55.4,100,30.07,7.0,Calm,Calm,-,N/A,,Scattered Clouds,0,2012-12-25 03:49:00
8:15 PM,53.6,53.6,100,30.09,7.0,Calm,Calm,-,N/A,,Clear,0,2012-12-25 04:15:00
8:35 PM,51.8,51.8,100,30.09,7.0,Calm,Calm,-,N/A,,Scattered Clouds,0,2012-12-25 04:35:00
8:47 PM,51.8,51.8,100,30.08,7.0,Calm,Calm,-,N/A,,Scattered Clouds,0,2012-12-25 04:47:00
8:55 PM,53.6,53.6,100,30.09,8.0,Calm,Calm,-,N/A,,Mostly Cloudy,0,2012-12-25 04:55:00
9:15 PM,51.8,51.8,100,30.09,9.0,SW,3.5,-,N/A,,Overcast,230,2012-12-25 05:15:00
9:35 PM,51.8,51.8,100,30.09,10.0,ESE,6.9,-,N/A,,Mostly Cloudy,110,2012-12-25 05:35:00
9:55 PM,51.8,51.8,100,30.10,10.0,SE,3.5,-,N/A,,Partly Cloudy,140,2012-12-25 05:55:00
10:15 PM,51.8,51.8,100,30.10,10.0,ESE,3.5,-,N/A,,Clear,120,2012-12-25 06:15:00
10:35 PM,50.0,50.0,100,30.11,10.0,Calm,Calm,-,N/A,,Clear,0,2012-12-25 06:35:00
10:55 PM,48.2,48.2,100,30.11,10.0,Calm,Calm,-,N/A,,Clear,0,2012-12-25 06:55:00
11:15 PM,48.2,48.2,100,30.11,10.0,Calm,Calm,-,N/A,,Mostly Cloudy,0,2012-12-25 07:15:00
11:35 PM,50.0,50.0,100,30.11,10.0,Calm,Calm,-,N/A,,Overcast,0,2012-12-25 07:35:00
11:55 PM,50.0,50.0,100,30.10,10.0,Calm,Calm,-,N/A,,Overcast,0,2012-12-25 07:55:00